Regional Weather Roundup
Issued by NWS Newport/Morehead, NC

Current Version | Previous Version | Text Only | Print | Product List | Glossary On
Versions: 1 2 3 4 5 6 7 8 9 10 11 12 13 14 15 16 17 18 19 20 21 22 23 24 25 26 27 28 29 30 31 32 33 34 35 36 37 38 39 40 41 42 43 44 45 46 47 48 49 50
000
ASUS42 KMHX 101622
RWRMHX
WEATHER ROUNDUP FOR EASTERN NORTH CAROLINA
NATIONAL WEATHER SERVICE NEWPORT/MOREHEAD CITY NC
1200 PM EDT THU JUL 10 2014

NOTE: "FAIR" INDICATES FEW OR NO CLOUDS BELOW 12,000 FEET
WITH NO SIGNIFICANT WEATHER AND/OR OBSTRUCTIONS TO VISIBILITY

NCZ015>017-031-032-045>047-102-103-101700-
NORTH COAST

CITY           SKY/WX    TMP DP  RH WIND       PRES   REMARKS
EDENTON        CLOUDY    82  73  74 SW9       30.09F
ELIZABETH CITY CLOUDY    82  75  79 S12       30.09S
KITTY HAWK     PTSUNNY   88  73  61 S3        30.08F
MANTEO         PTSUNNY   86  74  68 S13       30.09F

$$

NCZ045>047-081-094-103-104-101700-
CENTRAL COAST

CITY           SKY/WX    TMP DP  RH WIND       PRES   REMARKS
FRISCO         MOSUNNY   87  77  72 SW13      30.12S
SWANQUARTER      N/A     86 N/A N/A SW9G16    30.06S

$$

NCZ095-097-098-100-101-101700-
SOUTHERN COAST

CITY           SKY/WX    TMP DP  RH WIND       PRES   REMARKS
BEAUFORT       PTSUNNY   84  77  79 S14       30.11F
CEDAR ISLAND     N/A     88 N/A N/A S12G18    30.15S
JACKSONVILLE   LGT RAIN  79  70  74 S6        30.09F
NEWPORT        NOT AVBL
PINEY ISLAND   MOSUNNY   89  78  70 SW15G24   30.10  HX 103
WILMINGTON     CLOUDY    79  71  76 SW6       30.10S


$$

NCZ011>013-027>030-043-044-078>080-089-090>093-098-101700-
COASTAL PLAIN

CITY           SKY/WX    TMP DP  RH WIND       PRES   REMARKS
AHOSKIE        CLOUDY    80  71  75 S3        30.08F
CLINTON        MOSUNNY   85  76  73 SW7       30.08F
ELIZABETHTOWN  MOSUNNY   87  72  61 S8        30.08F
GOLDSBORO      MOSUNNY   86  79  78 SW9       30.05F
GREENVILLE     PTSUNNY   84  77  79 W3        30.08F
HAVELOCK       TSTM      75  69  81 NW12G22   30.11S VSB 1/2
KENANSVILLE    MOSUNNY   85  73  65 S6        30.08F
KINSTON        HVY RAIN  73  72  94 SE14G23   30.08F
NEW BERN       CLOUDY    79  72  78 S6        30.10F
RICHLANDS      PTSUNNY   82  66  57 S9        30.09F
ROANOKE RAPIDS NOT AVBL
ROCKY MOUNT    PTSUNNY   84  75  74 S7        30.07F
WASHINGTON     PTSUNNY  N/A N/A N/A S8        30.08S
WHITEVILLE     MOSUNNY   87  74  65 SE9       30.08F

$$

AMZ130-135-150-152-154-156-158-170-250-252-270-ANZ085-086-088-633-658-670-101700-
MARINE OBSERVATIONS

STATION/POSITION TIME  TEMP    WIND        PRES    WAVE   SWELL
                       AIR SEA DIR/SP/G            HT/PER HT/PER
                 (UTC) (F)     (DEG/KT/KT) (MB)    (FT/S) (FT/S)
CHESAPEAKE LIGHT NOT AVBL
BUOY 44014       1600   78 76  220/  8/ 10 1019.1    3/ 6   3/ 6
DUCK             1600   83 62  220/  9/ 12 1018.2
2E DUCK          1600                        N/A     2/ 8
OREGON INLET     1600   82 83  190/ 15/ 19 1019.4
BUOY 44095       1600      80                N/A     3/ 6
HATTERAS CG      1600   84 81  200/ 10/ 14 1020.4
DIAMOND BUOY     1600          VRB 12/ 16  1020.1    5/ 6   2/14
17S OCRACOKE INL NOT AVBL
CAPE LOOKOUT     1600   83     190/ 15/ 18 1019.7
BEAUFORT LAB     1600   82 82  200/ 13/ 18 1019.2
30 SE NEW RIVER  1600   82 82  200/ 17/ 19 1019.9    4/ 6   2/ 8
5 SE WRIGHTSVILL 1600   78 81  200/ 14/ 16 1019.5
FRYING PAN BUOY  NOT AVBL
BUOY 41001       NOT AVBL
BUOY 41002       1537   80 81  190/ 12/ 14 1023.1    3/ 9   2/ 9
BUOY 41004       1600   82 81  200/ 10/ 12 1019.1    4/ 6   3/ 6

$$



USA.gov is the U.S. government's official web portal to all federal, state and local government web resources and services.